Regional Weather Roundup
Issued by NWS

Home | Current Version | Previous Version | Graphics & Text | Print | Product List | Glossary On
Versions: 1 2 3 4 5 6 7 8 9 10 11 12 13 14 15 16 17 18 19 20 21 22 23 24 25 26 27 28 29 30 31 32 33 34 35 36 37 38 39 40 41 42 43 44 45 46 47 48 49 50
000
ASUS43 KMPX 051101
RWRMN
WEATHER ROUNDUP FOR MINNESOTA
NATIONAL WEATHER SERVICE TWIN CITIES/CHANHASSEN MN
500 AM CST THU MAR 05 2015


NOTE: "FAIR" INDICATES FEW OR NO CLOUDS BELOW 12,000 FEET WITH NO
SIGNIFICANT WEATHER AND/OR OBSTRUCTIONS TO VISIBILITY. N/A MEANS
CURRENT SKY AND/OR WEATHER CONDITIONS ARE NOT AVAILABLE.

MNZ060>063-068>070-051200-
   Twin Cities Metro

CITY           SKY/WX    TMP DP  RH WIND       PRES   REMARKS
TWIN CITIES    FAIR      -6 -12  75 W5        30.45R WCI -17
ST PAUL        CLEAR     -5 -11  75 NW6       30.47R WCI -18
CRYSTAL        CLEAR     -8 -14  74 CALM      30.44R
BLAINE         CLEAR     -8 -11  84 CALM      30.43S
LAKEVILLE      CLEAR     -9 -15  77 W5        30.44R WCI -21
EDEN PRAIRIE   CLEAR     -8 -13  78 W5        30.44R WCI -19
SOUTH ST PAUL  CLEAR     -5 -12  74 CALM      30.46R
LAKE ELMO      FAIR      -8 -13  77 CALM      30.44R
$$
MNZ001>005-007-008-013>017-022>024-027-028-051200-
   Northwest Minnesota

CITY           SKY/WX    TMP DP  RH WIND       PRES   REMARKS
BEMIDJI        MOCLDY   -17 -21  80 S3        30.32R
HALLOCK        MOCLDY   -15 -20  76 S9        30.32F WCI -33
ROSEAU         CLEAR    -13 -18  77 SW9       30.30F WCI -31
WARROAD        PTCLDY   -17 -22  76 S6        30.29F WCI -31
THIEF RVR FALL MOCLDY   -15 -26  58 S7        30.32F WCI -31
CROOKSTON      PTCLDY   -11 -17  77 SW7       30.38F WCI -26
FOSSTON        MOCLDY   -20 -26  76 S7        30.34S WCI -37
DETROIT LAKES  PTCLDY   -11 -17  77 CALM      30.35F
MOORHEAD       PTCLDY    -8 -11  84 SW3       30.40F
PARK RAPIDS    MOCLDY   -20 -26  74 W3        30.32F
MAHNOMEN       FAIR     -13 -18  78 S7        30.35F WCI -29
$$
MNZ006-009>011-018-025>026-051200-
   North Central Minnesota

CITY           SKY/WX    TMP DP  RH WIND       PRES   REMARKS
BAUDETTE       PTCLDY   -19 -24  77 SW5       30.29S WCI -32
FLAG ISLAND    PTCLDY   -17 -22  76 S5        30.27S WCI -29
INTL FALLS     PTCLDY   -23 -28  78 SW5       30.31S WCI -37
WASKISH        PTCLDY   -13 -18  77 CALM      30.32S
BIG FORK       CLEAR    -27 -35  68 CALM      30.31S
LONGVILLE      PTCLDY   -27 -35  68 CALM      30.34S
GRAND RAPIDS   PTCLDY   -17 -20  83 W3        30.30S
CRANE LAKE     PTCLDY   -27 -35  68 CALM      30.35R
ORR            PTCLDY   -18 -24  76 CALM      30.28S
COOK           PTCLDY   -29 -35  75 CALM      30.31S
WALKER         FAIR     -17 -21  79 W3        30.33S
$$
MNZ012-019>021-037-051200-
   Northeast Minnesota

CITY           SKY/WX    TMP DP  RH WIND       PRES   REMARKS
DULUTH         PTCLDY   -13 -19  75 NW8       30.30S WCI -30
ELY            CLEAR    -26 -33  68 CALM      30.29R
HIBBING        PTCLDY   -27 -34  69 CALM      30.31R
EVELETH        PTCLDY   -22 -29  69 CALM      30.32R HAZE
DULUTH HARBOR  PTCLDY   -11 -18  70 CALM      30.43R
TWO HARBORS    CLEAR    -15 -22  70 CALM      30.31S
SILVER BAY     CLEAR    -20 -27  69 CALM      30.31R
GRAND MARAIS     N/A     -5 -15  62 NW8G20    30.34S WCI -20
G MARAIS ARPRT PTCLDY   -17 -24  70 NW5       30.20R WCI -29
$$
MNZ029>031-032-039>041-046>048-054>057-064-051200-
   West Central Minnesota

CITY           SKY/WX    TMP DP  RH WIND       PRES   REMARKS
FERGUS FALLS   PTCLDY   -11 -17  77 CALM      30.43F
WHEATON        PTCLDY   -15 -18  84 CALM      30.43S
MORRIS         PTCLDY   -11 -17  77 W5        30.40S WCI -23
ALEXANDRIA     PTCLDY   -12 -16  82 W6        30.37R WCI -26
ELBOW LAKE     FAIR     -15 -20  80 CALM      30.39S
WADENA         MOCLDY   -17 -20  83 W3        30.35R
GLENWOOD       MOCLDY   -15 -20  76 CALM      30.39R
APPLETON       PTCLDY   -15 -20  76 SW5       30.44S WCI -27
BENSON         PTCLDY   -13 -18  77 CALM      30.42S
ORTONVILLE       N/A    -13 -18  77 CALM      30.42S
MADISON        PTCLDY    -9 -17  70 W5        30.44S WCI -21
WILLMAR        FAIR     -11 -17  77 CALM      30.42S
$$
MNZ033>034-036-042>043-049>051-058-059-051200-
   Central Minnesota

CITY           SKY/WX    TMP DP  RH WIND       PRES   REMARKS
ST CLOUD       PTCLDY   -12 -17  78 CALM      30.41S
SAUK CENTRE    FAIR     -17 -21  80 CALM      30.39R
PAYNESVILLE    PTCLDY   -15 -19  82 S5        30.42R WCI -28
AITKIN         PTCLDY   -20 -27  69 SW3       30.35S
PINE RIVER     PTCLDY   -26 -33  68 CALM      30.38R
BRAINERD       PTCLDY   -25 -29  81 S3        30.37S
STAPLES        MOCLDY   -24 -27  83 CALM      30.36R
LONG PRAIRIE   FAIR     -18 -24  76 CALM      30.38S
LITTLE FALLS   PTCLDY   -20 -27  69 CALM      30.41S
LITCHFIELD     CLEAR     -9 -13  84 CALM      30.42S
BUFFALO        CLEAR    -10 -14  80 CALM      30.45R
MAPLE LAKE     CLEAR    -12 -16  82 CALM      30.43S
$$
MNZ037-044-045-052-053-051200-
   East Central Minnesota

CITY           SKY/WX    TMP DP  RH WIND       PRES   REMARKS
PRINCETON      PTCLDY   -15 -20  76 CALM      30.41S
MORA           PTCLDY   -15 -22  70 CALM      30.42R
CAMBRIDGE      PTCLDY   -15 -20  76 CALM      30.41S
RUSH CITY      PTCLDY   -16 -21  78 CALM      30.43R
MOOSE LAKE     PTCLDY   -15 -20  76 CALM      30.36S
HINCKLEY       FAIR     -17 -20  83 CALM      30.40S
CLOQUET        PTCLDY   -15 -20  76 W7        30.33S WCI -31
MCGREGOR       PTCLDY   -18 -24  76 CALM      30.36S
$$
MNZ071>073-080-081-089-090-097-098-051200-
   Southwest Minnesota

CITY           SKY/WX    TMP DP  RH WIND       PRES   REMARKS
MONTEVIDEO     PTCLDY    -9 -15  77 NW5       30.45R WCI -21
GRANITE FALLS  CLEAR    -12 -17  78 SW5       30.46S WCI -23
CANBY          PTCLDY    -8 -14  73 SW7       30.44R WCI -22
MARSHALL       CLEAR     -8 -13  77 W7        30.43R WCI -22
REDWOOD FALLS  CLEAR     -8 -14  74 W5        30.45R WCI -19
OLIVIA         CLEAR    -11 -15  84 SW3       30.44R
PIPESTONE      MOCLDY   -15 -18  84 W5        30.39R WCI -27
WINDOM         CLEAR     -9 -15  77 CALM      30.42R
WORTHINGTON    CLEAR    -11 -20  64 W8        30.42R WCI -28
JACKSON        CLEAR     -8 -15  71 W5        30.42R WCI -19
TRACY          CLEAR     -8 -14  73 SW7       30.42R WCI -22
SLAYTON        PTCLDY   -10 -17  68 CALM      30.40R
$$
MNZ065>067-074>077-082>085-091>093-051200-
   South Central Minnesota

CITY           SKY/WX    TMP DP  RH WIND       PRES   REMARKS
MANKATO        CLEAR     -8 -13  77 CALM      30.44R
NEW ULM        CLEAR    -11 -17  77 W6        30.46R WCI -25
ST JAMES       CLEAR     -6 -13  71 W5        30.46R WCI -17
FAIRMONT       CLEAR     -8 -13  77 W3        30.42S
GLENCOE        CLEAR     -9 -13  82 MISG      30.44R
FARIBAULT      CLEAR     -9 -15  77 CALM      30.44R
OWATONNA       CLEAR    -11 -17  77 CALM      30.42S
WASECA         CLEAR     -9 -13  84 W3        30.44R
ALBERT LEA     CLEAR     -9 -13  84 CALM      30.41S
$$
MNZ078>079-086>088-094>096-051200-
   Southeast Minnesota

CITY           SKY/WX    TMP DP  RH WIND       PRES   REMARKS
ROCHESTER      CLEAR    -10 -15  78 NW7       30.39R WCI -25
RED WING       CLEAR    -15 -20  76 CALM      30.45R
STANTON        CLEAR     -8 -14  76 SW3       30.44R
DODGE CENTER   PTCLDY    -8  -9  92 NW7       30.39R WCI -22
WINONA         CLEAR     -4  -9  77 NW5       30.47R WCI -15
AUSTIN         CLEAR     -8 -11  84 NW3       30.41R
PRESTON        CLEAR    -10 -15  76 NW7       30.40R WCI -25
$$
ABBREVIATIONS USED IN REMARKS
   TC - TEMPERATURES IN CELSIUS
  WCI - WIND CHILL INDEX
   HX - HEAT INDEX
  VSB - VISIBILITY
$$


USA.gov is the U.S. government's official web portal to all federal, state and local government web resources and services.